Temp
7 7 7 7 8 8 8 8 8 8 8 8 9 9 9 9 9 10 10 10 10 10 10 9 9 9 9 8 8 8 7 7 6 6 6 6 5 5 5 5 5 5
7 7 7 7 8 8 8 8 8 8 8 8 8 9 9 9 9 10 10 10 10 10 10 10 9 9 9 9 8 8 7 7 7 6 6 6 6 6 5 5 5 5
7 7 7 7 8 8 8 8 8 8 8 8 8 9 9 9 9 9 9 9 10 10 10 10 9 9 9 9 8 8 8 7 7 6 6 6 6 6 6 5 5 5
7 7 7 7 7 8 8 8 8 8 8 8 8 8 9 9 9 9 9 9 10 10 10 9 9 9 9 9 9 8 8 8 7 7 7 7 7 6 6 6 5 5
6 6 6 6 7 7 8 8 8 8 8 8 8 8 9 9 9 9 9 9 10 10 10 9 9 9 9 9 9 8 8 8 8 7 7 7 7 7 6 6 6 6
7 6 5 5 6 6 7 7 8 8 8 8 8 8 9 9 9 9 9 9 9 10 10 9 9 9 9 9 9 8 8 8 8 8 7 7 7 7 6 6 6 6
7 6 6 5 5 5 5 6 7 7 7 8 8 8 8 8 8 8 9 9 9 9 10 9 9 9 9 9 9 9 8 8 8 8 8 7 7 7 6 6 6 6
6 6 5 5 4 4 4 5 6 7 7 7 8 8 8 8 8 8 8 9 9 9 9 9 9 9 9 9 9 9 9 8 8 8 8 8 7 7 7 6 6 6
6 5 5 5 4 4 4 4 5 6 7 7 7 7 7 7 8 8 8 8 9 9 9 9 9 9 9 9 9 9 9 8 8 8 8 8 7 7 7 6 6 6
6 6 5 5 5 5 5 5 5 5 6 7 7 7 7 7 7 8 8 8 9 9 9 9 9 9 9 9 9 9 9 8 8 8 8 8 7 7 7 6 6 6
6 6 5 5 5 5 6 6 6 6 6 7 7 7 7 7 7 8 8 8 9 9 9 9 9 9 9 9 9 9 9 8 8 8 8 8 7 7 7 7 6 6
5 6 6 5 5 6 6 6 6 6 6 7 7 7 7 7 8 8 8 8 8 9 9 9 9 9 9 9 9 9 9 9 8 8 8 8 7 7 7 7 7 6
5 5 5 6 6 6 6 6 6 6 6 7 7 7 7 7 8 8 8 8 8 9 9 9 9 9 9 9 9 9 9 9 8 8 8 8 8 8 7 7 7 6
4 5 5 6 6 6 5 6 5 6 6 7 7 7 7 7 7 8 8 8 8 8 8 9 9 9 9 9 9 9 9 9 9 8 8 8 8 8 8 7 7 7
3 4 4 5 6 6 5 5 5 5 6 6 7 7 7 7 7 7 7 7 7 8 8 8 8 9 9 9 9 9 9 9 9 8 8 8 8 8 8 7 7 7
3 4 4 5 6 6 5 5 5 5 5 5 6 6 7 7 7 7 7 7 7 7 7 7 8 8 8 9 9 9 9 9 9 8 8 8 8 7 7 7 7 7
3 4 4 5 5 4 4 5 5 5 5 5 5 6 6 6 5 5 5 5 5 5 5 6 7 8 8 9 9 9 9 9 9 8 8 8 8 7 7 7 7 7
4 4 4 4 4 4 4 4 4 5 5 5 5 6 6 6 6 6 6 5 5 4 4 4 5 6 7 8 9 9 9 8 8 8 8 8 8 7 7 7 7 7
4 4 4 4 4 4 4 4 4 4 5 5 5 5 5 5 5 6 6 6 5 5 4 4 4 4 5 6 7 8 7 7 7 8 8 8 8 7 7 7 7 7
4 4 4 4 4 4 4 4 4 4 5 5 5 5 5 5 5 5 5 6 6 5 5 5 5 4 4 5 6 6 6 6 7 7 7 7 7 7 7 7 7 7
4 4 4 4 4 4 5 5 5 5 5 5 5 5 5 5 5 5 5 5 6 5 5 5 6 5 4 4 4 5 5 6 6 7 7 8 7 7 7 7 7 7
4 4 4 4 4 4 5 5 5 5 5 5 5 5 5 5 5 5 5 5 5 5 5 6 6 6 5 5 5 5 5 5 5 6 7 8 8 7 7 7 7 7
4 4 4 4 4 4 4 5 5 5 5 4 5 5 5 5 5 5 6 6 6 6 6 6 6 6 5 5 5 6 6 6 5 6 7 8 8 7 7 7 7 7
4 4 4 4 4 4 4 4 5 4 4 4 4 5 5 5 5 5 6 6 6 6 6 6 6 6 6 5 5 6 6 6 6 6 7 8 8 8 7 7 7 7
4 4 4 4 4 4 4 4 4 4 4 4 4 5 5 5 5 5 5 6 6 6 6 6 6 6 6 5 5 5 6 6 6 5 6 7 8 8 8 8 8 8
3 3 4 4 4 4 4 4 4 5 4 4 5 5 5 5 5 5 6 6 6 6 6 6 6 6 6 5 5 5 5 6 6 5 5 7 8 8 8 8 8 8
Height
3109 3110 3112 3114 3117 3120 3123 3127 3131 3134 3137 3140 3143 3144 3145 3146 3148 3149 3150 3151 3152 3154 3155 3157 3158 3158 3159 3159 3160 3161 3163 3164 3165 3166 3166 3167 3168 3169 3170 3170 3171 3172
3106 3108 3109 3111 3113 3116 3119 3123 3127 3130 3133 3136 3139 3142 3143 3143 3145 3146 3147 3149 3150 3152 3153 3155 3156 3156 3157 3157 3158 3159 3160 3161 3163 3163 3164 3165 3166 3167 3167 3168 3169 3170
3099 3102 3105 3108 3110 3112 3116 3119 3123 3126 3129 3132 3135 3138 3140 3140 3141 3143 3145 3146 3148 3149 3151 3153 3154 3154 3155 3155 3156 3157 3158 3159 3160 3161 3162 3162 3163 3164 3165 3165 3166 3167
3089 3092 3098 3103 3106 3109 3112 3115 3118 3122 3126 3129 3131 3134 3137 3138 3138 3140 3141 3143 3145 3147 3148 3150 3151 3152 3152 3152 3153 3154 3156 3157 3158 3158 3159 3160 3161 3161 3162 3163 3164 3165
3087 3089 3091 3095 3100 3104 3107 3110 3113 3117 3121 3125 3128 3131 3134 3135 3135 3136 3137 3139 3141 3144 3146 3147 3148 3149 3149 3150 3151 3152 3153 3154 3155 3155 3156 3157 3158 3159 3160 3161 3162 3163
3087 3089 3088 3088 3093 3098 3101 3104 3108 3112 3116 3120 3124 3127 3130 3132 3132 3133 3134 3135 3138 3140 3142 3144 3145 3146 3146 3147 3148 3149 3151 3152 3152 3153 3154 3155 3155 3156 3157 3158 3159 3161
3083 3085 3086 3086 3088 3090 3093 3096 3102 3107 3111 3115 3118 3121 3125 3127 3129 3130 3131 3132 3134 3136 3139 3140 3142 3143 3144 3145 3146 3147 3149 3150 3150 3150 3151 3152 3153 3154 3155 3156 3157 3158
3079 3081 3083 3085 3086 3087 3087 3089 3095 3102 3107 3110 3113 3116 3120 3123 3125 3127 3128 3129 3131 3133 3135 3136 3138 3140 3141 3142 3143 3145 3146 3147 3148 3148 3149 3150 3150 3151 3152 3153 3155 3156
3075 3078 3080 3082 3084 3086 3086 3086 3089 3095 3101 3106 3109 3112 3115 3118 3121 3123 3124 3126 3127 3129 3131 3133 3135 3136 3138 3140 3141 3143 3144 3145 3146 3146 3147 3148 3148 3150 3150 3151 3152 3154
3069 3073 3076 3080 3082 3085 3088 3088 3088 3091 3096 3101 3104 3107 3111 3114 3117 3119 3121 3122 3123 3125 3127 3129 3131 3133 3135 3137 3139 3140 3141 3142 3143 3144 3145 3145 3146 3147 3148 3149 3150 3151
3063 3068 3073 3077 3079 3081 3085 3088 3088 3091 3095 3097 3100 3103 3107 3110 3113 3116 3118 3119 3120 3122 3124 3126 3128 3130 3132 3134 3136 3137 3139 3140 3141 3141 3142 3143 3144 3145 3146 3147 3148 3149
3058 3063 3069 3073 3075 3078 3082 3084 3085 3089 3093 3094 3097 3100 3104 3107 3110 3112 3114 3115 3117 3118 3120 3122 3124 3126 3129 3131 3133 3134 3136 3137 3138 3139 3139 3140 3141 3142 3143 3144 3145 3146
3055 3059 3063 3068 3072 3075 3078 3081 3082 3084 3088 3090 3093 3096 3099 3102 3105 3107 3110 3112 3113 3115 3116 3118 3120 3122 3125 3127 3129 3131 3132 3134 3135 3136 3137 3138 3138 3140 3141 3141 3142 3143
3051 3055 3059 3063 3067 3070 3073 3077 3079 3081 3084 3086 3089 3091 3093 3096 3100 3103 3105 3107 3108 3110 3112 3114 3116 3118 3121 3123 3126 3127 3129 3130 3132 3133 3134 3135 3136 3137 3138 3139 3140 3141
3047 3050 3054 3057 3060 3064 3069 3073 3075 3078 3080 3082 3084 3086 3088 3091 3094 3097 3100 3102 3104 3105 3107 3109 3111 3114 3117 3119 3122 3124 3125 3127 3128 3130 3131 3132 3133 3134 3134 3136 3137 3138
3042 3045 3049 3051 3053 3058 3065 3069 3072 3073 3075 3077 3079 3082 3084 3086 3088 3091 3094 3096 3097 3099 3102 3104 3106 3109 3112 3115 3118 3120 3121 3123 3125 3127 3128 3130 3130 3131 3131 3133 3134 3135
3039 3041 3044 3047 3048 3053 3060 3066 3068 3070 3071 3073 3075 3078 3081 3083 3085 3087 3089 3091 3091 3092 3095 3099 3102 3105 3107 3110 3113 3115 3116 3118 3121 3123 3125 3126 3127 3128 3129 3130 3131 3132
3037 3039 3041 3043 3046 3051 3058 3062 3064 3066 3068 3071 3072 3074 3076 3079 3082 3086 3089 3091 3092 3091 3092 3094 3096 3098 3101 3104 3107 3109 3111 3113 3116 3118 3120 3122 3124 3125 3126 3127 3128 3129
3035 3037 3039 3042 3045 3049 3055 3058 3060 3062 3065 3067 3070 3072 3073 3074 3076 3080 3084 3087 3090 3091 3092 3093 3094 3093 3095 3099 3102 3104 3105 3108 3110 3113 3115 3118 3120 3121 3123 3124 3125 3126
3031 3034 3037 3039 3043 3046 3050 3052 3055 3057 3060 3063 3066 3067 3069 3071 3073 3075 3078 3081 3084 3086 3088 3091 3093 3092 3091 3093 3096 3098 3100 3102 3105 3107 3110 3113 3115 3117 3119 3121 3122 3123
3028 3031 3033 3036 3039 3042 3045 3048 3050 3053 3056 3059 3061 3062 3064 3066 3068 3071 3073 3075 3078 3080 3082 3086 3090 3092 3091 3091 3091 3093 3095 3097 3100 3103 3106 3109 3111 3114 3116 3117 3119 3119
3026 3028 3031 3033 3036 3038 3041 3043 3046 3048 3051 3053 3055 3057 3059 3061 3063 3066 3069 3071 3074 3076 3078 3082 3085 3088 3091 3092 3092 3091 3091 3093 3096 3100 3102 3105 3108 3110 3112 3114 3115 3116
3023 3025 3028 3030 3032 3035 3037 3039 3042 3044 3046 3048 3050 3052 3054 3056 3059 3062 3066 3068 3070 3073 3075 3078 3081 3084 3087 3091 3093 3092 3091 3091 3094 3097 3099 3102 3104 3106 3107 3109 3111 3113
3020 3022 3024 3027 3029 3031 3034 3036 3038 3040 3042 3044 3046 3047 3050 3052 3055 3058 3061 3063 3066 3069 3071 3074 3077 3080 3082 3086 3088 3089 3089 3089 3090 3092 3094 3097 3099 3101 3103 3105 3107 3109
3016 3018 3021 3023 3025 3028 3030 3032 3035 3037 3038 3040 3042 3043 3045 3048 3050 3052 3055 3058 3061 3064 3067 3070 3073 3075 3078 3080 3082 3083 3084 3084 3084 3084 3086 3090 3094 3096 3099 3101 3103 3105
3013 3015 3017 3019 3022 3024 3026 3029 3031 3032 3034 3036 3037 3039 3041 3043 3045 3047 3050 3054 3056 3059 3061 3064 3068 3071 3073 3076 3078 3079 3080 3080 3079 3079 3081 3085 3088 3091 3093 3096 3099 3101
Wind_Speed
36 37 37 37 36 36 37 36 32 29 27 22 20 22 21 21 24 27 28 26 23 23 24 23 21 18 16 16 16 18 17 16 17 17 17 15 15 15 14 12 11 10
41 41 40 38 36 38 40 39 33 32 31 25 20 22 23 22 24 28 30 26 23 24 25 26 26 22 18 17 17 18 18 17 17 17 17 16 16 15 14 13 12 11
45 44 42 40 38 40 42 41 36 33 36 32 25 24 24 23 25 29 31 28 23 25 27 28 28 24 19 18 18 20 19 18 17 18 17 17 17 16 15 14 13 12
50 47 43 40 38 40 42 42 39 35 38 39 32 27 26 25 25 28 32 32 28 28 30 29 27 25 21 19 20 21 21 19 18 18 18 17 17 17 16 16 14 13
54 48 43 41 41 41 42 41 39 37 39 41 35 30 30 28 26 27 31 34 34 31 31 29 27 25 22 20 20 22 22 21 20 19 18 17 17 17 17 16 15 13
57 53 48 47 47 46 47 45 41 39 40 40 37 32 31 29 25 25 29 34 37 35 33 32 28 25 23 21 21 22 23 22 20 19 18 17 17 18 18 16 15 13
58 60 57 52 49 50 51 49 45 43 41 41 39 35 32 30 25 23 25 30 35 36 35 33 30 27 24 22 21 22 23 23 22 20 19 18 18 18 18 16 15 14
56 58 58 55 53 53 52 51 48 46 44 43 42 39 35 33 29 26 25 27 31 33 35 34 32 29 26 24 22 22 23 24 23 22 20 19 19 18 17 16 15 14
57 57 55 53 53 52 48 48 49 48 45 44 44 42 40 37 33 30 29 30 30 31 34 35 34 31 28 25 24 23 23 24 24 23 21 20 19 17 17 17 16 15
58 58 54 50 49 50 46 44 46 46 44 44 45 45 44 40 35 33 33 34 33 32 33 35 35 34 30 27 25 24 23 24 25 24 23 21 19 18 18 18 17 16
55 57 55 53 53 54 49 41 39 40 40 41 45 46 46 42 38 36 36 36 36 34 33 34 36 35 33 29 27 24 23 24 25 25 24 22 21 19 19 19 18 17
51 55 57 59 57 56 51 39 32 36 39 40 44 47 46 43 40 39 39 38 38 36 34 35 36 36 35 31 28 25 23 24 25 26 26 24 23 21 20 20 19 18
46 51 56 62 59 52 50 43 34 35 40 41 43 47 47 46 43 41 40 40 40 39 36 36 37 37 36 33 29 27 25 24 25 26 27 26 25 23 22 21 20 20
43 47 51 59 59 48 44 44 38 35 40 43 45 47 47 47 45 42 43 43 42 40 38 38 38 38 37 35 32 29 26 25 25 26 26 27 26 26 25 23 22 21
39 43 45 53 60 53 44 43 39 35 38 41 44 46 47 46 45 44 45 44 42 41 39 39 39 38 37 36 34 31 28 26 26 26 26 27 27 27 27 26 24 23
32 38 42 47 56 56 48 45 43 38 37 37 40 44 46 46 46 46 47 45 42 40 38 37 38 38 37 36 35 33 30 28 28 26 26 27 28 29 29 28 27 25
28 31 35 41 47 51 48 45 43 41 38 36 39 44 47 46 45 43 44 45 43 40 38 38 36 35 35 36 36 36 33 31 29 28 27 28 29 30 30 29 28 26
28 27 29 34 39 42 41 39 40 41 40 37 37 38 40 43 43 41 41 42 42 40 39 38 36 35 35 36 38 38 36 33 30 30 29 28 28 30 30 30 30 28
31 29 28 29 31 32 33 36 40 42 42 39 36 34 33 35 38 38 40 43 44 43 42 40 38 37 35 35 37 39 38 35 32 31 31 30 29 29 30 31 31 30
34 34 33 32 32 33 35 38 40 43 44 42 40 39 37 35 33 34 36 39 40 41 42 42 41 40 36 33 35 37 37 36 35 34 33 32 30 29 29 30 30 31
32 33 34 34 36 38 40 41 42 43 46 46 46 45 43 41 38 36 35 36 36 38 40 40 40 40 38 34 31 32 34 34 34 34 34 33 31 29 28 28 29 31
29 29 30 31 34 37 39 42 42 42 44 46 48 48 47 45 44 42 40 39 38 37 37 38 38 37 37 35 31 30 32 31 31 33 34 33 32 30 27 26 28 29
28 28 29 30 32 34 36 39 41 41 41 42 45 48 49 48 47 47 45 44 42 40 38 36 36 36 35 35 34 33 33 29 27 31 34 33 32 31 28 26 26 27
28 28 29 31 33 33 33 35 36 38 38 39 42 45 48 49 49 49 48 47 46 45 42 38 38 39 37 36 35 36 36 31 28 32 35 35 33 31 30 28 28 27
29 29 29 30 32 33 34 34 34 35 37 39 40 42 44 47 48 50 50 48 47 47 47 44 42 42 39 36 36 37 38 35 32 33 35 36 36 33 31 31 32 31
31 32 32 32 32 33 34 33 32 33 35 37 38 39 40 43 47 50 52 50 46 45 47 48 46 45 42 37 37 40 41 37 34 34 35 37 37 36 35 34 35 35
Wind_Direction
214 218 221 224 229 230 226 226 225 226 236 242 241 240 232 222 223 222 219 218 222 231 237 242 245 244 239 232 230 231 229 227 226 223 221 219 219 221 225 229 234 242
223 223 223 222 228 230 226 227 227 224 228 234 239 240 234 225 221 220 217 217 225 233 235 239 242 240 239 233 230 231 229 228 227 223 221 222 223 224 226 229 233 240
221 224 224 225 229 228 223 225 226 221 220 225 237 242 236 230 225 221 219 218 227 236 235 235 237 237 236 234 233 231 229 228 226 222 220 223 225 225 225 228 232 237
221 219 218 224 226 219 217 222 221 215 213 220 234 242 237 234 230 225 223 219 221 233 236 232 232 234 234 234 235 233 230 228 224 221 221 223 225 226 225 228 231 235
235 227 218 223 225 217 214 219 219 214 214 220 228 235 235 233 231 228 226 221 217 225 235 233 228 229 232 234 237 235 231 229 225 223 223 225 227 227 227 228 230 233
244 244 236 231 230 229 226 225 223 222 222 223 224 227 228 228 228 227 225 222 218 221 230 232 228 227 230 235 239 237 233 230 227 226 226 226 227 227 227 227 227 229
240 247 250 245 237 235 234 231 229 228 228 226 223 223 223 222 226 227 225 225 224 224 229 232 230 227 229 234 240 239 234 230 229 228 227 227 227 227 228 227 226 227
237 242 252 256 249 241 237 233 230 230 231 229 225 225 223 222 227 232 231 231 230 230 232 233 231 228 228 232 238 240 235 231 229 230 229 228 228 228 228 227 227 227
236 238 245 254 255 252 248 241 234 230 230 230 228 228 226 225 228 232 234 235 235 234 234 233 232 229 228 230 235 239 237 232 230 230 230 229 228 227 226 227 228 228
232 235 241 248 252 255 259 259 249 235 228 229 230 228 226 228 229 230 232 234 235 236 235 234 233 230 228 230 234 237 237 233 230 228 229 229 226 224 225 227 228 229
229 230 235 243 249 251 255 261 258 244 233 229 227 225 225 229 231 230 231 233 234 236 237 236 234 230 228 230 232 235 236 235 231 228 227 228 226 225 226 228 230 230
228 228 229 234 243 248 248 247 247 244 240 232 225 223 226 230 232 231 230 232 233 234 235 236 235 232 229 228 230 233 235 236 233 229 226 226 226 228 229 230 231 231
229 230 228 229 234 243 244 239 238 240 238 234 229 228 228 230 231 230 229 230 230 231 233 235 234 232 229 227 227 230 232 236 237 234 229 226 227 230 232 232 231 232
231 233 232 229 229 235 238 233 233 237 236 234 233 233 232 231 229 228 228 228 227 228 230 231 231 230 227 226 226 228 229 234 239 239 234 230 229 230 232 232 231 232
233 235 234 229 227 230 231 226 228 236 239 237 235 234 232 230 227 227 227 226 224 225 225 225 227 228 226 225 226 227 229 234 239 242 239 235 231 231 231 231 231 232
232 233 230 228 227 225 224 221 223 232 239 241 241 239 236 234 231 229 227 225 224 223 222 222 223 224 224 223 224 226 228 233 238 241 242 239 234 231 232 232 231 232
223 226 227 228 224 218 217 220 225 232 238 241 242 241 240 243 246 243 236 232 231 230 226 222 219 219 219 219 221 223 225 231 237 239 241 240 236 233 232 232 232 231
215 219 224 225 220 215 219 226 231 235 238 241 243 242 240 243 248 250 246 245 249 252 246 235 224 219 218 217 218 220 222 227 232 236 238 239 237 236 233 232 232 232
210 213 218 219 217 219 225 230 233 235 236 240 244 246 245 243 242 244 243 245 253 259 260 254 240 229 225 221 219 219 221 224 227 231 235 237 237 236 235 234 234 234
207 209 213 216 217 220 225 230 233 235 237 241 245 246 246 247 248 249 246 245 247 250 256 258 249 241 237 232 227 225 225 226 226 228 231 234 236 236 235 237 238 238
216 214 215 218 219 222 225 228 232 234 236 240 245 248 246 245 248 251 250 250 248 247 250 251 247 246 247 246 242 235 232 232 231 230 230 232 236 237 236 239 241 242
225 224 224 225 225 226 228 231 234 236 237 238 242 247 248 247 246 246 248 250 250 250 251 248 245 247 249 251 251 242 236 237 237 233 232 233 236 239 237 238 242 244
225 224 225 227 228 229 230 232 235 237 238 239 241 244 247 249 248 246 247 250 250 249 252 252 249 248 246 249 252 243 236 238 237 233 232 232 237 241 239 239 243 246
227 225 224 226 230 232 232 233 235 236 237 240 241 243 245 247 248 247 247 249 249 248 250 251 249 246 243 247 249 240 235 236 231 227 230 230 234 240 242 243 247 250
230 229 227 227 229 233 235 236 239 241 242 243 244 245 245 245 246 246 246 247 247 247 248 248 247 245 245 251 249 236 232 235 230 223 227 230 232 237 241 243 248 253
231 231 233 233 233 234 236 238 242 246 247 248 248 248 248 247 247 246 245 246 247 248 247 246 247 245 243 252 255 241 231 235 237 231 229 230 233 236 238 241 246 252